Flag for U.S.A. Weather past 2 weeks in Lincoln, Nebraska, U.S.A.

Now
-3 °F

Clear.


Feels Like: -13 °F
Forecast: -6 / 20 °F
Wind: 5 mph from North

Location: Lincoln Municipal Airport

Current Time: Feb 27, 2015 at 5:43:12 AM

Latest Report: Feb 27, 2015 at 4:54 AM


Visibility: 10 mi

Pressure: 30.68 "Hg

Humidity: 78%

Dew point: -8 °F

Location of LincolnLocation

Historic Weather in Lincoln — Graph

°F

Lincoln temperature yesterday

Maximum temperature yesterday: 15 °F (at 1:54 PM)
Minimum temperature yesterday: 0 °F (at 10:54 PM)
Average temperature yesterday: 8 °F

Past Weeks' High & Low Weather Summary

 TemperatureHumidityPressure
High53 °F (Feb 13, 3:54 PM)93% (Feb 21, 8:03 AM)30.89 "Hg (Feb 21, 8:03 AM)
Low-5 °F (Feb 23, 6:54 AM)26% (Feb 23, 2:54 PM)29.76 "Hg (Feb 25, 8:54 AM)
Average21 °F61%30.31 "Hg
* Reported Feb 12 3:54 AM — Feb 27 3:54 AM, Lincoln, Weather by CustomWeather, © 2015

Note: Actual official high and low records may vary slightly from our data, if they occured in-between our weather recording intervals... More about our weather records

Advertising

Lincoln weather history for previous 24 hours

 ConditionsComfort  
Time TempWeatherWind HumidityBarometerVisibility
3:54 AM
Fri, Feb 27
-5 °FClear.6 mph83%30.68 "Hg10 mi
2:54 AM-2 °FClear.5 mph83%30.68 "Hg10 mi
1:54 AM-4 °FClear.7 mph79%30.69 "Hg10 mi
12:54 AM-3 °FClear.No wind82%30.68 "Hg10 mi
11:54 PM
Thu, Feb 26
1 °FClear.6 mph79%30.67 "Hg10 mi
10:54 PM0 °FClear.3 mph79%30.68 "Hg10 mi
9:54 PM4 °FClear.3 mph76%30.67 "Hg10 mi
8:54 PM5 °FClear.5 mph72%30.66 "Hg10 mi
7:54 PM5 °FClear.6 mph76%30.65 "Hg10 mi
6:54 PM8 °FPassing clouds.9 mph72%30.63 "Hg10 mi
5:54 PM12 °FSunny.15 mph56%30.60 "Hg10 mi
4:54 PM14 °FPartly sunny.15 mph51%30.60 "Hg10 mi
3:54 PM13 °FPartly sunny.16 mph54%30.60 "Hg10 mi
2:54 PM15 °FOvercast.17 mph51%30.59 "Hg10 mi
1:54 PM15 °FOvercast.20 mph49%30.58 "Hg10 mi
12:54 PM14 °FSunny.21 mph51%30.59 "Hg10 mi
11:54 AM12 °FPassing clouds.17 mph58%30.60 "Hg10 mi
10:54 AM9 °FSunny.20 mph61%30.59 "Hg10 mi
9:54 AM7 °FSunny.20 mph63%30.59 "Hg10 mi
8:54 AM4 °FSunny.18 mph66%30.59 "Hg10 mi
7:54 AM3 °FSunny.20 mph69%30.57 "Hg10 mi
6:54 AM3 °FClear.23 mph69%30.53 "Hg10 mi
5:54 AM4 °FClear.22 mph69%30.51 "Hg10 mi
Weather by CustomWeather, © 2015

See weather overviewHow to use our weather pages